NOAA 16 DEB

Satellite information

Favourite Embed

Satellite Type and Status

DEBRISIN ORBIT

Key statistics

Satellite NOAA 16 DEB at a glance.

Uptime

9054

Days in orbit

Revolutions

≈ 14.5

Per day

Orbit

SSO

Sun Synchronous Orbit

Inclination

98.9

Latest

Satellite identification and parameters

Extended collection of information and parameters for NOAA 16 DEB.

Object identification

Identified? True

Debris? True

Object name: NOAA 16 DEB

International designator: 2000-055KA

Object number (NORAD): 41397

Object ID (CCSDS): 41397

Country: UNITED STATES OF AMERICA (US)

Current information (Y/N): Y

RCS size: SMALL

Orbital parameters

Period: 99.586 minutes

Inclination: 98.9257 deg

SMA: 7116.946 km

Apoapsis: 763.202 km

Periapsis: 714.42 km

RAAN: 344.1499 deg

Eccentricy: 0.0034272

Argument of periapsis: 76.2709 deg

Mean anomaly: 284.2293 deg

Mean motion: 14.45979926 rev/day

Mean motion (dot): 0.00005531 rev/day2

B* drag term: 0.0015547 1/REarth

Two-line elements (TLE)

Creation date: July 4, 2025, 6:39 p.m.

Reference frame: TEME

Reference center: EARTH

Epoch: July 4, 2025, 8:58 a.m. UTC

TLE line 0: 0 NOAA 16 DEB

TLE line 1: 1 41397U 00055KA 25185.37413087 .00005531 00000-0 15547-2 0 9996

TLE line 2: 2 41397 98.9257 344.1499 0034272 76.2709 284.2293 14.45979926485248

Live tracking on map

Real-time ground track for satellite NOAA 16 DEB.

In-orbit conjunctions

A list of the most updated potential collisions computed for object NOAA 16 DEB.

Target Orbit TCA Probability of collision Miss distance Type
IRIDIUM 73 LEO 2025-05-12 16:27:19 0.0003040075 243.0 (m) PAYLOAD
SL-8 R/B LEO 2024-11-27 18:44:43 0.0003261542 232.0 (m) ROCKET BODY
DELTA 4 DEB SSO 2024-06-02 14:00:30 0.0001545912 626.0 (m) DEBRIS

Associated space launch

The NOAA K, L and M POES satellites begin the fifth generation of improved environmental monitoring in support of NOAA missions. The instrument payload has significant improvements and additions/deletions. The instrument changes have effected the spacecraft subsystems and data formats.

NOAA 16 DEB was lifted into orbit during the mission ‘Titan II SLV | NOAA 16’, on board a Titan II SLV space rocket.

The launch took place on Sept. 21, 2000, 10:22 a.m. from Space Launch Complex 4W.

For more information about the launch, click the button.

Launch to space Titan II SLV | NOAA 16
Titan II SLV | NOAA 16

Agency: N/A

Status: Launch Successful

Launch date: Sept. 21, 2000, 10:22 a.m. UTC

Rocket: Titan II SLV

Launch pad: Space Launch Complex 4W

Location: Vandenberg SFB, CA, USA

...

Latest news about this satellite

There are no fresh news available about this satellite. Check back as we update our databases every day.


Newsletter sign-up

Weekly statistics, charts and insights to help you stay on top of the space industry.